Theta_e
337 337 336 334 333 332 330 328 327 325 324 323 322 322 323 323 322 322 322 322 322 322 321 321 322 322 320 320 319 320 319 319 319 319 319 321 323 326 329 331 330 324 334
337 337 335 333 332 331 329 327 326 325 323 322 322 323 322 322 321 321 320 321 321 322 322 321 321 319 318 317 318 318 319 321 319 317 317 317 315 321 325 328 330 323 331
337 335 334 332 331 330 328 327 325 324 322 322 322 322 321 321 321 320 320 321 322 320 321 321 319 318 317 318 317 316 317 318 317 316 315 315 316 318 326 322 328 327 332
335 334 333 332 330 329 327 326 324 323 322 322 321 321 321 320 320 320 320 320 320 320 319 318 319 319 318 318 317 316 315 315 315 314 313 314 315 322 322 321 326 329 328
335 334 331 330 329 328 327 325 323 322 322 321 321 321 320 320 320 320 318 318 318 318 318 319 318 316 315 315 315 314 314 315 313 312 315 314 313 315 318 320 321 328 329
334 333 331 330 329 327 326 324 322 321 321 320 321 320 320 319 319 318 318 317 316 318 317 315 315 315 314 314 315 315 313 313 312 312 313 313 313 316 316 315 321 327 328
334 331 330 329 328 327 325 323 321 321 320 321 320 319 318 319 319 318 318 317 317 317 317 317 317 315 315 315 315 314 313 312 313 312 312 312 313 316 315 315 321 327 329
332 331 330 329 327 326 325 322 321 320 320 318 317 317 317 318 317 317 317 317 317 317 318 318 317 314 315 315 313 312 313 314 313 313 312 312 313 316 316 318 323 327 328
332 331 329 327 326 325 322 319 319 319 317 317 314 312 313 315 313 311 316 317 317 318 317 316 315 315 316 314 312 312 313 313 311 312 315 313 311 317 317 321 323 326 327
332 330 328 326 325 323 320 316 316 313 310 307 308 312 313 310 310 314 315 316 316 317 316 315 315 313 313 312 312 313 312 310 315 317 318 318 314 319 318 324 325 325 325
331 329 327 325 324 322 319 313 311 308 305 306 311 312 313 310 313 314 315 314 316 315 314 314 313 312 312 312 313 313 312 312 314 314 320 319 318 319 320 326 324 325 324
330 328 327 325 324 322 319 312 307 306 304 309 311 312 311 312 313 314 315 314 314 313 314 312 311 312 312 312 314 314 311 310 309 311 318 321 316 320 327 324 324 326 325
330 328 326 325 324 323 320 312 306 306 308 309 311 312 312 313 313 314 315 314 314 312 312 311 311 312 313 314 314 315 315 312 310 315 317 320 322 326 327 330 330 326 324
330 328 326 325 324 323 321 314 306 309 309 308 310 312 313 313 313 314 315 314 314 313 311 310 311 313 314 313 314 316 317 317 315 317 318 318 322 326 329 330 330 329 328
330 328 326 325 325 323 321 313 309 310 309 308 310 313 313 313 314 314 314 314 313 312 310 310 312 315 315 315 316 318 320 318 319 321 323 325 326 327 330 329 329 327 327
330 328 327 325 325 324 322 315 312 310 309 308 310 312 313 313 314 314 314 314 313 312 310 310 313 314 317 317 318 320 322 323 323 322 325 325 326 328 329 328 327 327 326
330 328 327 325 325 324 321 318 313 311 310 309 308 312 313 313 313 313 314 314 313 312 310 311 312 315 317 316 316 317 318 322 322 323 326 328 328 328 328 328 328 328 326
329 328 327 326 325 324 321 319 313 311 310 309 307 312 312 313 313 313 314 314 313 312 311 312 313 315 317 316 316 317 318 318 321 323 324 327 326 326 327 327 327 326 327
329 328 327 326 325 324 321 320 313 311 310 309 308 311 312 313 313 313 315 314 313 313 311 313 313 315 317 317 317 319 320 321 322 322 325 326 326 325 326 325 327 326 325
328 328 327 326 325 324 321 319 313 311 310 309 309 310 312 313 313 313 315 314 313 313 312 312 313 315 317 317 318 317 319 321 320 321 322 324 324 325 325 325 324 325 325
327 327 327 326 325 324 321 314 312 311 310 309 309 309 311 312 313 313 315 314 313 314 313 312 313 315 316 317 317 317 316 318 319 320 322 323 324 325 325 324 325 324 324
327 327 327 326 325 324 321 316 313 312 310 309 309 309 310 312 312 312 315 315 314 314 314 314 314 315 316 316 316 317 317 317 317 315 321 321 322 324 324 324 323 323 322
327 327 327 326 324 323 320 316 314 311 310 309 309 310 310 312 312 312 315 315 314 314 314 315 316 316 315 316 316 316 315 317 313 313 315 319 320 321 321 321 321 320 320
326 327 327 326 324 323 320 316 313 311 309 309 309 310 310 311 312 311 313 315 315 315 315 315 316 316 316 316 315 316 316 316 315 315 312 315 319 319 319 319 318 318 318
326 326 327 326 324 322 319 318 313 311 310 310 309 309 310 311 312 311 312 314 315 315 315 315 316 316 316 315 315 315 316 316 315 314 312 312 314 315 317 317 316 316 315
324 326 326 326 324 323 319 318 314 312 310 309 309 309 310 311 311 312 311 313 314 315 316 316 316 316 317 315 315 317 317 315 314 311 310 309 308 309 314 315 314 315 314
Wind_Speed
23 24 20 17 15 14 13 12 12 11 10 10 10 9 9 9 9 10 10 9 8 8 8 7 7 6 7 7 7 7 7 7 7 7 8 9 7 6 5 4 8 10 11
30 26 20 16 15 14 13 12 11 11 10 10 9 9 10 10 10 10 10 9 8 8 7 7 7 8 9 9 8 8 8 8 7 8 10 11 8 6 3 1 7 11 10
31 25 21 17 16 14 13 12 12 11 11 10 10 10 10 10 10 10 10 9 9 9 8 9 9 9 8 8 9 9 9 11 9 9 8 2 4 4 2 3 4 12 10
32 27 21 18 15 14 14 13 12 11 11 10 10 10 10 10 9 9 10 10 10 10 10 10 10 9 10 11 10 10 11 11 10 8 9 6 9 6 1 6 5 7 11
31 27 18 15 15 15 14 13 12 12 11 10 10 10 10 10 9 10 11 10 10 10 10 11 11 11 11 11 11 10 10 9 9 10 7 6 6 2 2 4 11 9 11
30 24 19 16 17 16 14 13 12 12 12 11 11 10 10 10 10 11 11 11 10 11 11 11 12 14 14 12 12 12 11 12 12 10 9 6 7 5 4 4 3 5 13
29 22 19 16 18 16 15 14 13 12 12 11 11 10 10 10 11 11 11 11 11 12 12 12 12 14 15 14 12 12 11 10 9 7 6 4 5 6 4 5 3 4 12
29 23 20 20 18 17 16 14 13 13 12 12 11 11 11 11 11 12 12 12 12 12 11 11 10 11 12 11 12 14 12 12 10 9 7 4 3 4 4 5 7 10 10
28 25 21 20 17 17 17 15 14 13 12 11 12 11 11 11 11 13 13 13 11 12 15 13 15 12 13 15 13 12 12 13 12 10 8 5 3 4 7 9 6 12 9
25 21 22 21 19 18 16 15 14 12 11 11 12 13 12 13 15 17 15 12 11 12 15 14 13 13 14 15 14 12 13 16 16 16 12 7 7 6 8 12 17 14 12
24 21 23 22 20 18 16 15 13 11 11 12 13 11 11 13 13 14 13 13 13 12 14 14 15 16 16 15 18 15 16 17 18 21 22 13 9 8 13 16 16 16 17
23 24 25 23 21 18 17 16 14 12 12 13 11 11 10 12 12 13 13 13 12 13 13 15 19 20 19 18 19 18 21 18 18 20 19 17 14 13 14 18 15 17 21
27 25 26 23 21 20 20 18 16 15 14 13 11 12 12 12 12 12 13 12 12 14 13 15 19 21 19 21 20 20 21 20 20 20 17 17 14 12 10 12 18 22 25
28 26 26 25 23 21 19 21 18 17 15 13 12 12 12 12 13 13 13 12 13 15 13 16 19 20 18 20 20 19 21 21 23 20 17 13 14 12 12 16 17 20 17
29 27 25 26 26 25 21 21 20 18 16 15 15 14 13 14 14 14 13 13 15 14 13 18 19 21 19 20 21 22 21 23 21 18 18 15 10 13 16 16 20 18 16
31 28 27 27 26 28 24 24 21 19 17 16 16 14 14 14 15 15 15 15 14 13 15 19 21 20 19 20 22 24 25 22 20 21 22 20 16 18 19 19 18 13 9
34 31 30 29 27 29 27 23 22 21 19 18 18 16 16 17 16 16 17 15 15 12 16 21 20 19 21 22 24 23 24 24 24 22 23 22 23 19 18 19 17 16 18
31 35 35 29 30 30 30 25 24 22 20 19 19 18 18 17 17 17 18 16 15 13 18 20 17 21 24 24 25 25 23 25 27 24 24 27 26 23 20 16 15 25 28
40 38 40 36 32 31 32 27 25 23 22 20 20 20 19 19 18 18 19 17 15 14 18 19 19 21 26 25 25 27 28 27 26 28 25 22 25 27 26 25 28 27 27
38 40 37 38 34 33 33 30 27 24 23 22 21 21 21 21 20 20 20 19 19 18 21 19 22 22 26 27 29 27 28 27 25 25 25 23 19 23 24 25 26 28 29
36 37 40 38 40 38 38 37 32 31 28 25 23 22 22 22 21 22 22 22 21 21 22 23 26 25 25 25 20 23 27 28 28 27 26 26 29 24 26 26 30 32 31
38 41 40 39 41 44 42 39 30 35 31 28 25 24 24 24 23 23 25 24 24 24 23 23 24 20 16 8 7 8 2 12 24 28 30 32 32 33 35 35 33 32 31
37 39 40 44 44 45 42 39 28 31 27 27 27 26 26 26 24 25 27 26 25 24 25 18 14 14 14 11 4 6 2 2 2 20 27 33 35 37 35 35 32 29 27
37 38 42 43 43 43 45 42 38 34 26 29 36 32 29 27 26 26 28 26 26 25 23 18 15 13 15 12 8 7 8 10 2 3 19 29 35 34 33 31 28 26 23
36 39 40 41 42 41 44 45 41 32 28 29 35 32 30 29 27 27 29 27 27 26 23 19 16 15 13 15 10 16 21 14 6 3 3 10 30 28 28 26 24 23 21
37 40 41 42 42 42 44 45 43 36 33 32 36 36 34 31 30 29 29 28 27 27 25 21 18 16 14 14 14 27 25 10 12 6 5 8 13 19 25 22 21 20 19
Wind_Direction
162 161 160 155 154 141 134 128 121 114 111 105 100 95 88 79 73 68 64 61 55 48 41 28 24 14 0 349 347 345 334 324 315 315 311 304 289 288 275 202 203 174 187
158 160 159 158 157 144 136 132 124 120 115 108 102 96 89 81 74 68 66 61 53 43 39 27 13 9 10 0 353 338 342 347 328 324 323 319 290 260 289 270 191 166 209
157 157 158 165 157 145 140 137 130 124 117 111 105 99 93 84 80 72 67 61 57 47 36 27 21 15 0 356 354 352 346 341 340 335 332 56 81 188 287 274 193 188 184
154 156 162 161 163 148 145 140 132 127 121 116 111 105 98 92 84 74 65 64 57 47 35 26 25 19 9 9 2 359 356 355 350 353 352 30 63 109 151 226 209 196 172
154 156 166 166 164 152 147 141 136 131 125 121 113 108 102 94 85 77 69 62 55 48 39 36 32 22 18 17 12 8 10 16 38 31 77 66 32 61 85 39 229 189 174
154 156 164 174 154 153 150 144 141 136 129 125 116 111 105 94 86 80 73 64 58 50 41 42 47 41 35 36 34 34 46 46 53 51 60 62 41 37 358 1 31 173 164
157 160 166 170 158 155 152 148 145 140 134 128 121 114 106 98 90 83 76 68 61 55 53 55 51 48 49 47 39 42 54 47 43 43 45 40 26 19 29 33 27 139 147
157 165 175 160 163 161 156 153 149 145 140 131 124 116 108 102 94 87 80 72 64 58 45 46 35 48 42 39 35 40 37 41 44 46 15 19 11 33 79 95 110 139 145
162 164 166 162 167 166 165 160 155 151 146 138 129 117 109 105 94 86 86 74 68 51 55 54 57 67 46 52 54 49 39 41 38 29 16 26 90 99 117 118 125 126 118
167 172 170 167 170 172 169 166 164 160 151 139 127 116 112 98 95 87 81 78 69 62 60 58 63 62 67 65 63 46 45 51 42 34 36 44 118 128 130 112 105 95 111
171 183 175 173 175 179 176 174 170 161 146 137 133 128 115 108 100 92 81 82 83 69 66 64 67 70 74 70 65 48 48 56 46 35 37 72 112 123 130 115 104 112 131
173 182 180 180 181 184 183 180 173 165 152 146 143 134 120 119 103 98 91 91 88 80 69 75 79 76 75 73 66 56 62 52 40 44 53 60 102 117 123 122 130 129 125
184 186 187 185 186 188 189 184 178 170 162 157 151 140 132 131 121 107 100 94 87 81 71 92 79 76 75 78 71 57 60 64 59 58 63 64 77 103 109 114 123 126 134
187 191 193 191 192 192 194 191 184 178 170 164 159 154 149 137 126 118 104 98 91 84 77 96 88 78 80 83 75 62 68 74 74 62 58 72 76 72 110 117 117 122 128
188 197 204 197 203 195 192 189 186 184 176 170 163 156 152 144 133 126 113 103 97 88 85 103 91 84 84 87 83 71 69 77 67 64 67 68 82 94 113 109 112 107 112
191 204 207 211 208 198 197 192 190 187 181 176 171 161 158 150 142 132 124 113 99 96 93 107 96 87 83 89 82 75 71 66 69 67 68 66 77 107 122 113 115 104 105
200 195 204 210 212 205 200 197 194 190 186 178 174 165 160 153 149 137 129 121 112 104 107 108 100 94 89 82 79 73 72 73 66 68 78 72 85 89 119 118 116 98 84
201 197 196 203 211 209 201 199 196 193 189 182 177 170 164 160 157 145 134 126 117 117 117 115 107 97 92 87 81 76 77 81 81 81 83 84 84 91 99 111 109 111 98
199 198 196 197 208 208 202 200 198 197 195 188 179 174 167 165 162 153 143 137 131 124 125 120 113 105 100 91 85 81 82 80 77 80 83 82 86 88 98 99 100 111 108
198 198 198 194 203 206 203 195 195 198 197 195 186 179 170 169 167 160 150 144 140 129 130 124 117 111 107 101 88 84 82 84 79 78 84 88 97 97 99 103 101 106 110
196 194 198 194 198 199 200 188 188 194 195 196 193 184 178 174 171 165 158 154 150 138 125 124 124 121 108 101 90 75 71 80 80 85 86 88 87 104 112 108 106 105 104
192 196 195 197 194 196 198 193 192 194 195 197 193 188 183 180 176 172 167 162 157 152 144 136 134 131 133 126 113 92 56 58 71 72 88 89 89 102 103 107 109 107 107
195 194 194 195 195 191 192 194 193 193 194 194 195 191 188 185 181 179 175 170 169 163 164 170 173 157 159 142 121 119 101 85 74 58 77 92 94 101 103 107 106 107 109
199 196 196 194 192 189 191 190 190 187 186 197 194 193 188 188 185 181 180 178 179 179 175 179 179 176 170 162 130 121 121 132 116 90 63 85 101 101 103 103 105 105 108
199 195 196 192 191 188 188 192 191 190 194 193 195 192 190 188 189 184 185 182 182 186 188 189 196 192 183 179 161 143 133 117 92 112 105 89 93 101 104 109 109 106 106
203 196 192 189 190 188 190 191 193 192 189 187 191 191 190 189 190 189 188 187 187 190 195 194 200 198 193 194 173 161 154 147 147 130 107 92 94 81 106 110 108 111 113